| time (UTC) | temp C | wind direction | speed KPH | gust KPH | rain 1hr cm | rain 24hr cm | rain mn cm | humidity % | barometer mb |
| 20260507031231 | 7 | 237 | 9.7 | 9.7 | 0.00 | 1.07 | 1.07 | 89 | 1008.6 |
| 20260507025710 | 7 | 230 | 9.7 | 9.7 | 0.00 | 1.07 | 1.07 | 88 | 1008.7 |
| 20260507025223 | 7 | 230 | 9.7 | 9.7 | 0.00 | 1.07 | 1.07 | 88 | 1008.7 |
| 20260507022702 | 7 | 246 | 8.0 | 9.7 | 0.00 | 1.09 | 1.07 | 88 | 1008.7 |
| 20260507021231 | 7 | 231 | 6.4 | 11.3 | 0.00 | 1.09 | 1.07 | 89 | 1008.7 |
| 20260507015711 | 7 | 242 | 8.0 | 8.0 | 0.00 | 1.09 | 1.07 | 88 | 1008.8 |
| 20260507012703 | 7 | 246 | 8.0 | 11.3 | 0.00 | 1.09 | 1.07 | 86 | 1008.8 |
| 20260507011203 | 7 | 245 | 8.0 | 9.7 | 0.00 | 1.09 | 1.07 | 86 | 1009.0 |
| 20260507005738 | 7 | 241 | 9.7 | 9.7 | 0.00 | 1.09 | 1.07 | 85 | 1008.6 |
| 20260507005215 | 7 | 241 | 9.7 | 9.7 | 0.00 | 1.09 | 1.07 | 85 | 1008.6 |
| 20260507004202 | 7 | 241 | 6.4 | 8.0 | 0.00 | 1.09 | 1.07 | 84 | 1008.6 |
| 20260507002707 | 7 | 256 | 8.0 | 8.0 | 0.00 | 1.09 | 1.07 | 83 | 1008.4 |
| 20260507001202 | 7 | 263 | 4.8 | 9.7 | 0.00 | 1.09 | 1.07 | 82 | 1008.3 |
| 20260507000712 | 7 | 263 | 4.8 | 9.7 | 0.00 | 1.09 | 1.07 | 82 | 1008.3 |
| 20260506235712 | 7 | 254 | 8.0 | 8.0 | 0.00 | 1.09 | 1.07 | 80 | 1008.4 |
| 20260506234203 | 7 | 250 | 8.0 | 8.0 | 0.00 | 1.09 | 1.07 | 79 | 1008.2 |
| 20260506232711 | 8 | 256 | 8.0 | 8.0 | 0.00 | 1.09 | 1.07 | 78 | 1008.1 |
| 20260506232214 | 8 | 256 | 8.0 | 8.0 | 0.00 | 1.09 | 1.07 | 78 | 1008.1 |
| 20260506230710 | 8 | 249 | 11.3 | 12.9 | 0.00 | 1.09 | 1.07 | 78 | 1008.0 |
| 20260506230423 | 8 | 249 | 11.3 | 12.9 | 0.00 | 1.09 | 1.07 | 78 | 1008.0 |
| 20260506224702 | 8 | 299 | 9.7 | 9.7 | 0.00 | 1.09 | 1.07 | 78 | 1008.0 |
| 20260506223221 | 8 | 246 | 9.7 | 12.9 | 0.00 | 1.09 | 1.07 | 79 | 1008.0 |
| 20260506221702 | 8 | 242 | 12.9 | 12.9 | 0.00 | 1.09 | 1.07 | 79 | 1008.0 |
| 20260506220202 | 8 | 255 | 8.0 | 8.0 | 0.00 | 1.09 | 1.07 | 79 | 1008.1 |
| 20260506214702 | 8 | 282 | 6.4 | 8.0 | 0.00 | 1.09 | 1.07 | 78 | 1008.1 |
| 20260506213203 | 8 | 271 | 8.0 | 9.7 | 0.00 | 1.09 | 1.07 | 81 | 1007.9 |
| 20260506211728 | 8 | 240 | 9.7 | 9.7 | 0.00 | 1.09 | 1.07 | 82 | 1007.9 |
| 20260506210202 | 8 | 282 | 8.0 | 9.7 | 0.00 | 1.09 | 1.07 | 82 | 1008.5 |
| 20260506203202 | 8 | 291 | 8.0 | 8.0 | 0.00 | 1.09 | 1.07 | 79 | 1008.2 |
| 20260506201702 | 8 | 283 | 8.0 | 8.0 | 0.00 | 1.09 | 1.07 | 78 | 1008.2 |
| 20260506200202 | 8 | 273 | 8.0 | 8.0 | 0.00 | 1.09 | 1.07 | 79 | 1008.3 |
| 20260506194702 | 7 | 301 | 8.0 | 9.7 | 0.00 | 1.09 | 1.07 | 82 | 1008.3 |
| 20260506193202 | 8 | 310 | 9.7 | 11.3 | 0.00 | 1.09 | 1.07 | 80 | 1008.4 |
| 20260506191703 | 8 | 0 | 8.0 | 8.0 | 0.00 | 1.09 | 1.07 | 77 | 1008.4 |
| 20260506190202 | 8 | 95 | 4.8 | 8.0 | 0.00 | 1.09 | 1.07 | 80 | 1008.2 |
| 20260506184701 | 7 | 93 | 9.7 | 9.7 | 0.00 | 1.09 | 1.07 | 80 | 1008.2 |
| 20260506183202 | 7 | 105 | 6.4 | 9.7 | 0.00 | 1.09 | 1.07 | 86 | 1008.3 |
| 20260506181703 | 7 | 42 | 8.0 | 8.0 | 0.00 | 1.09 | 1.07 | 85 | 1008.3 |
| 20260506180202 | 7 | 241 | 3.2 | 8.0 | 0.00 | 1.09 | 1.07 | 88 | 1008.8 |
| 20260506174702 | 7 | 308 | 4.8 | 6.4 | 0.05 | 1.09 | 1.07 | 87 | 1008.8 |
| 20260506173202 | 7 | 292 | 4.8 | 4.8 | 0.05 | 1.09 | 1.07 | 89 | 1009.4 |
| 20260506171702 | 7 | 300 | 6.4 | 6.4 | 0.05 | 1.09 | 1.07 | 89 | 1009.4 |
| 20260506164702 | 6 | 353 | 4.8 | 4.8 | 0.08 | 1.04 | 1.02 | 86 | 1009.3 |
| 20260506163202 | 6 | 353 | 3.2 | 8.0 | 0.08 | 1.04 | 1.02 | 89 | 1009.5 |
| 20260506160202 | 6 | 326 | 8.0 | 8.0 | 0.15 | 1.02 | 0.99 | 92 | 1009.8 |
| 20260506154702 | 6 | 304 | 6.4 | 9.7 | 0.15 | 0.97 | 0.94 | 92 | 1009.8 |
| 20260506153201 | 6 | 319 | 8.0 | 8.0 | 0.18 | 0.94 | 0.91 | 93 | 1009.9 |
| 20260506151702 | 6 | 294 | 8.0 | 8.0 | 0.15 | 0.89 | 0.86 | 93 | 1009.9 |
| 20260506150203 | 6 | 249 | 8.0 | 8.0 | 0.20 | 0.86 | 0.84 | 93 | 1009.8 |
| 20260506144702 | 6 | 263 | 4.8 | 4.8 | 0.15 | 0.79 | 0.79 | 93 | 1009.8 |
| 20260506143202 | 6 | 256 | 8.0 | 9.7 | 0.15 | 0.76 | 0.74 | 93 | 1009.9 |
| 20260506141702 | 6 | 258 | 8.0 | 8.0 | 0.15 | 0.74 | 0.71 | 92 | 1009.9 |
| 20260506140202 | 6 | 238 | 6.4 | 8.0 | 0.10 | 0.66 | 0.64 | 91 | 1009.8 |
| 20260506134728 | 6 | 235 | 9.7 | 9.7 | 0.15 | 0.66 | 0.64 | 91 | 1009.8 |
| 20260506134250 | 6 | 235 | 9.7 | 9.7 | 0.15 | 0.66 | 0.64 | 91 | 1009.8 |
| 20260506133201 | 6 | 236 | 9.7 | 11.3 | 0.15 | 0.61 | 0.58 | 91 | 1010.0 |
| 20260506131701 | 6 | 240 | 9.7 | 9.7 | 0.18 | 0.58 | 0.56 | 91 | 1010.0 |
| 20260506130201 | 6 | 238 | 12.9 | 12.9 | 0.15 | 0.53 | 0.51 | 92 | 1009.9 |
| 20260506124728 | 6 | 240 | 12.9 | 12.9 | 0.18 | 0.48 | 0.46 | 92 | 1009.9 |
| 20260506123202 | 6 | 236 | 9.7 | 12.9 | 0.25 | 0.51 | 0.43 | 91 | 1009.9 |
| 20260506121701 | 6 | 252 | 8.0 | 9.7 | 0.23 | 0.46 | 0.38 | 92 | 1009.9 |
| 20260506120201 | 6 | 249 | 9.7 | 9.7 | 0.25 | 0.46 | 0.36 | 92 | 1010.1 |
| 20260506114702 | 6 | 245 | 9.7 | 12.9 | 0.18 | 0.38 | 0.28 | 92 | 1010.1 |
| 20260506113201 | 7 | 245 | 9.7 | 12.9 | 0.15 | 0.28 | 0.18 | 91 | 1010.2 |
| 20260506111728 | 7 | 229 | 12.9 | 12.9 | 0.15 | 0.25 | 0.15 | 91 | 1010.2 |
| 20260506104701 | 7 | 239 | 9.7 | 9.7 | 0.08 | 0.18 | 0.08 | 89 | 1009.7 |
| 20260506103227 | 7 | 233 | 12.9 | 14.5 | 0.03 | 0.13 | 0.03 | 88 | 1009.6 |
| 20260506101701 | 7 | 244 | 14.5 | 16.1 | 0.00 | 0.10 | 0.00 | 86 | 1009.6 |
| 20260506100202 | 7 | 240 | 12.9 | 17.7 | 0.00 | 0.10 | 0.00 | 85 | 1009.5 |
| 20260506094727 | 8 | 241 | 11.3 | 14.5 | 0.00 | 0.10 | 0.00 | 84 | 1009.5 |
| 20260506093201 | 8 | 239 | 11.3 | 12.9 | 0.00 | 0.10 | 0.00 | 85 | 1008.9 |
| 20260506091701 | 8 | 247 | 9.7 | 12.9 | 0.00 | 0.10 | 0.00 | 84 | 1008.9 |
| 20260506090202 | 8 | 239 | 11.3 | 12.9 | 0.00 | 0.10 | 0.00 | 83 | 1008.8 |
| 20260506084701 | 8 | 232 | 11.3 | 12.9 | 0.00 | 0.10 | 0.00 | 83 | 1008.8 |
| 20260506083203 | 8 | 246 | 12.9 | 16.1 | 0.00 | 0.10 | 0.00 | 83 | 1009.4 |
| 20260506080227 | 8 | 238 | 14.5 | 16.1 | 0.00 | 0.10 | 0.00 | 81 | 1009.2 |
| 20260506071701 | 9 | 237 | 17.7 | 19.3 | 0.00 | 0.10 | 0.00 | 80 | 1008.8 |
| 20260506070201 | 9 | 230 | 14.5 | 20.9 | 0.00 | 0.10 | 0.00 | 81 | 1008.8 |
| 20260506061702 | 9 | 237 | 16.1 | 19.3 | 0.00 | 0.10 | 0.00 | 83 | 1008.8 |
| 20260506060202 | 9 | 222 | 14.5 | 17.7 | 0.00 | 0.10 | 0.00 | 82 | 1008.5 |
| 20260506050201 | 10 | 237 | 16.1 | 17.7 | 0.00 | 0.10 | 0.00 | 82 | 1008.5 |
| 20260506044701 | 10 | 229 | 19.3 | 22.5 | 0.00 | 0.10 | 0.00 | 82 | 1008.5 |
| 20260506043201 | 10 | 230 | 19.3 | 20.9 | 0.00 | 0.10 | 0.00 | 82 | 1008.0 |
| 20260506041701 | 10 | 235 | 22.5 | 24.1 | 0.00 | 0.10 | 0.00 | 84 | 1008.0 |
| 20260506040230 | 10 | 235 | 17.7 | 22.5 | 0.00 | 0.10 | 0.10 | 86 | 1007.3 |
| 20260506034702 | 10 | 235 | 17.7 | 24.1 | 0.00 | 0.08 | 0.10 | 87 | 1007.3 |
| 20260506033228 | 10 | 237 | 16.1 | 20.9 | 0.00 | 0.08 | 0.10 | 87 | 1007.0 |
| 20260506031702 | 11 | 240 | 25.7 | 29.0 | 0.00 | 0.08 | 0.10 | 85 | 1007.0 |